Location: Scultetus-Sternwarte Görlitz
(51.1345°N, 14.9495°E)
Time: 19:05:52
(UTC+01:00)

ISS - Visible Passes

Search period start: 25 March 2019 00:00
Search period end: 04 April 2019 01:00
Orbit: 408 x 411 km, 51.6° (Epoch: 25 March)

Date Brightness Start Highest point End Pass type
(mag) Time Alt. Az. Time Alt. Az. Time Alt. Az.
25 Mar -4.0 20:18:09 10° WSW 20:21:28 80° SSE 20:21:38 76° ESE visible
26 Mar -3.7 19:27:36 10° WSW 19:30:52 62° SSE 19:33:16 17° E visible
26 Mar -2.1 21:04:09 10° W 21:06:02 31° W 21:06:02 31° W visible
27 Mar -3.8 20:13:29 10° W 20:16:49 82° N 20:17:33 51° ENE visible
27 Mar -0.5 21:50:08 10° W 21:50:19 11° W 21:50:19 11° W visible
28 Mar -3.8 19:22:50 10° WSW 19:26:09 88° SSE 19:29:00 13° E visible
28 Mar -2.6 20:59:29 10° W 21:01:45 41° W 21:01:45 41° W visible
29 Mar -3.8 20:08:49 10° W 20:12:08 80° N 20:13:09 41° E visible
29 Mar -0.8 21:45:27 10° W 21:45:55 13° W 21:45:55 13° W visible
30 Mar -3.7 19:18:07 10° W 19:21:26 80° N 19:24:30 12° E visible
30 Mar -2.9 20:54:45 10° W 20:57:16 46° W 20:57:16 46° W visible
31 Mar -3.9 21:04:04 10° W 21:07:23 86° SSW 21:08:35 37° ESE visible
31 Mar -0.9 22:40:48 10° W 22:41:21 13° W 22:41:21 13° W visible
01 Apr -3.8 20:13:22 10° W 20:16:41 84° N 20:19:54 11° E visible
01 Apr -2.8 21:50:01 10° W 21:52:40 39° SW 21:52:40 39° SW visible
02 Apr -3.6 20:59:16 10° W 21:02:32 59° SSW 21:03:59 29° SE visible
02 Apr -0.8 22:36:31 10° W 22:36:44 11° WSW 22:36:44 11° WSW visible
03 Apr -3.7 20:08:32 10° W 20:11:51 77° SSW 20:15:09 10° ESE visible
03 Apr -2.1 21:45:24 10° W 21:48:04 24° SW 21:48:04 24° SW visible
